CYGV

Havre St Pierre Airport

ICAO Code CYGV
IATA Code YGV
Name Havre St Pierre Airport
Location Havre St-Pierre, Quebec, CA
Elevation 125 Feet / 38.1 Meters
Latitude 50.28194444
Longitude -63.61111111
METAR CYGV 242122Z AUTO 09012G18KT 9SM OVC008 09/08 A2961 RMK SLP031
Extra information Display Charts
Runway Length Width Surface Elevation
08 4498 ft 100 ft ASP 110 ft
26 4498 ft 100 ft ASP 125 ft